Location: Hurstbourne Priors
(51.2000°N, 1.3667°W)
Time: 19:19:49
(UTC+00:00)

Transit 4A - Pass Details

Date: 24 April 2021
Orbit: 870 x 974 km, 66.8° (Epoch: 09 May)

Event Time Altitude Azimuth Distance (km) Brightness Sun altitude
Rises 01:32:04 0° 270° (W) 3,599 - -23.1°
Exits shadow 01:33:16 - 274° (W) 3,212 10.5 -23.0°
Reaches altitude 10° 01:35:10 10° 284° (WNW) 2,638 10.2 -22.9°
Maximum altitude 01:40:02 24° 337° (NNW) 1,804 9.8 -22.6°
Drops below altitude 10° 01:44:50 10° 30° (NNE) 2,585 11.4 -22.2°
Sets 01:47:50 0° 44° (NE) 3,511 12.2 -22.0°
